Simultaneous Nadir Overpasses (SNOs) Predictions

Prediction of SNOs between LANDSAT-8 and NOAA-19 Satellite Orbit:

Table of predicted SNOs for the next 14.0 days since TLE Epoch: 7/7/2017
Index Date (LANDSAT-8) Time (LANDSAT-8) Lat,Lon (LANDSAT-8) SZA (LANDSAT-8 ) Date (NOAA-19) Time (NOAA-19) Lat,Lon (NOAA-19) SZA (NOAA-19 ) Distance(km) Time Diff (sec)
1 07/08/2017 07:51:49 76.34, 71.35 53.98 07/08/2017 07:51:29 76.31, 71.30 53.95 3.54 20
2 07/08/2017 08:41:18 -76.26,-121.28 126.11 07/08/2017 08:42:24 -76.26,-121.26 126.09 0.78 66
3 07/10/2017 13:25:34 -76.35, 167.94 125.74 07/10/2017 13:25:13 -76.34, 167.82 125.76 3.43 21
4 07/10/2017 14:15:03 76.19, -24.93 54.09 07/10/2017 14:16:15 76.17, -24.32 54.11 16.53 72
5 07/12/2017 18:59:18 76.32, -95.58 54.54 07/12/2017 18:59:06 76.33, -95.54 54.54 1.09 12
6 07/12/2017 19:48:46 -76.30, 71.98 125.49 07/12/2017 19:50:00 -76.26, 71.98 125.51 3.69 74
7 07/15/2017 00:33:03 -76.33, 1.03 125.12 07/15/2017 00:32:49 -76.34, 1.04 125.11 1.09 14
8 07/15/2017 01:22:39 75.82, 167.07 54.33 07/15/2017 01:23:44 75.84, 170.12 54.47 82.86 65
9 07/17/2017 06:06:46 76.34, 97.63 55.26 07/17/2017 06:06:43 76.36, 97.57 55.27 2.24 3
10 07/17/2017 06:56:21 -75.98, -95.87 125.14 07/17/2017 06:57:29 -75.96, -93.67 125.06 59.46 68
11 07/19/2017 11:40:31 -76.36,-165.76 124.34 07/19/2017 11:40:25 -76.35,-165.77 124.34 0.60 6
12 07/21/2017 17:14:14 76.36, -69.19 56.09 07/21/2017 17:14:19 76.36, -69.22 56.10 0.94 5




NCC Satellite Simultaneous Nadir Overpasses (SNOs) Prediction Service
